Location: Fort Worth, Tx
(32.7431°N, 97.3695°W)
Time: 18:41:48
(UTC-04:00)

Transit 4A - Pass Details

Date: 07 March 2024
Orbit: 871 x 972 km, 66.8° (Epoch: 21 April)

Event Time Altitude Azimuth Distance (km) Brightness Sun altitude
Rises 07:38:41 0° 356° (N) 3,476 10.8 -3.0°
Maximum altitude 07:44:53 10° 45° (NE) 2,522 10.8 -1.7°
Drops below altitude 10° 07:45:14 10° 49° (NE) 2,525 10.9 -1.7°
Sets 07:51:01 0° 94° (E) 3,454 15.5 -0.5°
